Time,TemperatureF,DewpointF,PressureIn,WindDirection,WindDirectionDegrees,WindSpeedMPH,WindSpeedGustMPH,Humidity,HourlyPrecipIn,Conditions,Clouds,dailyrainin,SoftwareType,DateUTC
2013-05-30 00:00:00,58.7,58.4,29.98,WSW,254,0.0,0.0,99,0.00,,,0.25,WUHU216DAVISVP2,2013-05-30 04:00:00,
2013-05-30 00:01:00,58.7,58.4,29.98,WSW,254,0.0,0.0,99,0.00,,,0.25,WUHU216DAVISVP2,2013-05-30 04:01:00,
2013-05-30 00:06:00,58.7,58.4,29.99,WSW,254,0.0,0.0,99,0.01,,,0.01,WUHU216DAVISVP2,2013-05-30 04:06:00,
2013-05-30 00:11:00,58.7,58.4,29.99,WSW,254,0.0,1.0,99,0.01,,,0.01,WUHU216DAVISVP2,2013-05-30 04:11:00,
2013-05-30 00:16:00,58.6,58.3,29.99,WSW,254,0.0,1.0,99,0.01,,,0.01,WUHU216DAVISVP2,2013-05-30 04:16:00,
2013-05-30 00:21:00,58.5,57.9,29.99,WSW,254,1.0,1.0,98,0.01,,,0.01,WUHU216DAVISVP2,2013-05-30 04:21:00,
2013-05-30 00:26:00,58.4,57.8,29.99,WSW,254,0.0,1.0,98,0.01,,,0.01,WUHU216DAVISVP2,2013-05-30 04:26:00,
2013-05-30 00:31:00,58.4,57.8,29.99,WSW,254,0.0,1.0,98,0.01,,,0.01,WUHU216DAVISVP2,2013-05-30 04:31:00,
2013-05-30 00:36:00,58.3,57.7,30.00,WSW,254,0.0,1.0,98,0.01,,,0.01,WUHU216DAVISVP2,2013-05-30 04:36:00,
2013-05-30 00:41:00,58.2,57.6,29.99,WSW,254,0.0,0.0,98,0.01,,,0.01,WUHU216DAVISVP2,2013-05-30 04:41:00,
2013-05-30 00:46:00,58.2,57.6,29.99,WSW,254,0.0,0.0,98,0.01,,,0.01,WUHU216DAVISVP2,2013-05-30 04:46:00,
2013-05-30 00:51:00,58.2,57.9,29.99,WSW,254,0.0,0.0,99,0.01,,,0.01,WUHU216DAVISVP2,2013-05-30 04:51:00,
2013-05-30 00:56:00,58.2,57.9,29.99,WSW,254,0.0,0.0,99,0.01,,,0.01,WUHU216DAVISVP2,2013-05-30 04:56:00,
2013-05-30 01:01:00,58.2,57.9,30.00,WSW,254,0.0,0.0,99,0.01,,,0.01,WUHU216DAVISVP2,2013-05-30 05:01:00,
2013-05-30 01:06:00,58.2,57.9,29.99,WSW,254,0.0,0.0,99,0.00,,,0.01,WUHU216DAVISVP2,2013-05-30 05:06:00,
2013-05-30 01:11:00,58.2,57.9,29.99,WSW,254,0.0,0.0,99,0.00,,,0.01,WUHU216DAVISVP2,2013-05-30 05:11:00,
2013-05-30 01:16:00,58.2,57.9,29.99,WSW,254,0.0,0.0,99,0.00,,,0.01,WUHU216DAVISVP2,2013-05-30 05:16:00,
2013-05-30 01:21:00,58.2,57.9,29.99,WSW,254,0.0,1.0,99,0.00,,,0.01,WUHU216DAVISVP2,2013-05-30 05:21:00,
2013-05-30 01:26:00,58.2,57.9,29.99,WSW,254,0.0,1.0,99,0.00,,,0.01,WUHU216DAVISVP2,2013-05-30 05:26:00,
2013-05-30 01:31:00,58.2,57.9,29.99,WSW,254,0.0,1.0,99,0.00,,,0.01,WUHU216DAVISVP2,2013-05-30 05:31:00,
2013-05-30 01:36:00,58.1,57.8,29.99,WSW,254,0.0,1.0,99,0.00,,,0.01,WUHU216DAVISVP2,2013-05-30 05:36:00,
2013-05-30 01:41:00,58.1,57.8,29.99,WSW,254,0.0,0.0,99,0.00,,,0.01,WUHU216DAVISVP2,2013-05-30 05:41:00,
2013-05-30 01:46:00,58.1,57.8,29.99,WSW,254,0.0,0.0,99,0.00,,,0.01,WUHU216DAVISVP2,2013-05-30 05:46:00,
2013-05-30 01:51:00,58.1,57.8,29.99,WSW,254,0.0,0.0,99,0.00,,,0.01,WUHU216DAVISVP2,2013-05-30 05:51:00,
2013-05-30 01:56:00,58.0,57.7,29.99,WSW,254,0.0,0.0,99,0.00,,,0.01,WUHU216DAVISVP2,2013-05-30 05:56:00,
2013-05-30 02:01:00,57.9,57.6,29.99,WSW,254,0.0,0.0,99,0.00,,,0.01,WUHU216DAVISVP2,2013-05-30 06:01:00,
2013-05-30 02:06:00,57.8,57.5,29.99,WSW,254,0.0,0.0,99,0.00,,,0.01,WUHU216DAVISVP2,2013-05-30 06:06:00,
2013-05-30 02:11:00,57.7,57.4,29.99,WSW,254,0.0,0.0,99,0.00,,,0.01,WUHU216DAVISVP2,2013-05-30 06:11:00,
2013-05-30 02:16:00,57.6,57.3,29.98,WSW,254,0.0,0.0,99,0.00,,,0.01,WUHU216DAVISVP2,2013-05-30 06:16:00,
2013-05-30 02:21:00,57.5,57.2,29.99,WSW,254,0.0,0.0,99,0.00,,,0.01,WUHU216DAVISVP2,2013-05-30 06:21:00,
2013-05-30 02:26:00,57.4,57.1,29.99,WSW,254,0.0,0.0,99,0.00,,,0.01,WUHU216DAVISVP2,2013-05-30 06:26:00,
2013-05-30 02:31:00,57.3,57.0,29.99,WSW,254,0.0,0.0,99,0.00,,,0.01,WUHU216DAVISVP2,2013-05-30 06:31:00,
2013-05-30 02:36:00,57.3,57.0,29.98,WSW,254,0.0,0.0,99,0.00,,,0.01,WUHU216DAVISVP2,2013-05-30 06:36:00,
2013-05-30 02:41:00,57.3,57.0,29.98,WSW,254,0.0,0.0,99,0.00,,,0.01,WUHU216DAVISVP2,2013-05-30 06:41:00,
2013-05-30 02:46:00,57.3,57.0,29.99,WSW,254,0.0,0.0,99,0.00,,,0.01,WUHU216DAVISVP2,2013-05-30 06:46:00,
2013-05-30 02:51:00,57.2,56.9,29.99,WSW,254,0.0,0.0,99,0.00,,,0.01,WUHU216DAVISVP2,2013-05-30 06:51:00,
2013-05-30 02:56:00,57.1,56.8,29.98,WSW,254,0.0,0.0,99,0.00,,,0.01,WUHU216DAVISVP2,2013-05-30 06:56:00,
2013-05-30 03:01:00,57.0,56.7,29.99,WSW,254,0.0,0.0,99,0.00,,,0.01,WUHU216DAVISVP2,2013-05-30 07:01:00,
2013-05-30 03:06:00,56.9,56.6,29.99,WSW,254,0.0,0.0,99,0.00,,,0.01,WUHU216DAVISVP2,2013-05-30 07:06:00,
2013-05-30 03:11:00,56.8,56.5,29.98,WSW,254,0.0,0.0,99,0.00,,,0.01,WUHU216DAVISVP2,2013-05-30 07:11:00,
2013-05-30 03:16:00,56.8,56.5,29.98,WSW,254,0.0,0.0,99,0.00,,,0.01,WUHU216DAVISVP2,2013-05-30 07:16:00,
2013-05-30 03:21:00,56.8,56.5,29.99,WSW,254,0.0,0.0,99,0.00,,,0.01,WUHU216DAVISVP2,2013-05-30 07:21:00,
2013-05-30 03:26:00,56.7,56.4,29.98,WSW,254,0.0,0.0,99,0.00,,,0.01,WUHU216DAVISVP2,2013-05-30 07:26:00,
2013-05-30 03:31:00,56.6,56.3,29.98,WSW,254,0.0,0.0,99,0.00,,,0.01,WUHU216DAVISVP2,2013-05-30 07:31:00,
2013-05-30 03:36:00,56.4,56.1,29.98,WSW,254,0.0,0.0,99,0.00,,,0.01,WUHU216DAVISVP2,2013-05-30 07:36:00,
2013-05-30 03:41:00,56.2,55.9,29.98,WSW,254,0.0,0.0,99,0.00,,,0.01,WUHU216DAVISVP2,2013-05-30 07:41:00,
2013-05-30 03:46:00,56.0,55.4,29.98,WSW,254,0.0,0.0,98,0.00,,,0.01,WUHU216DAVISVP2,2013-05-30 07:46:00,
2013-05-30 03:51:00,55.9,55.6,29.98,WSW,254,0.0,0.0,99,0.00,,,0.01,WUHU216DAVISVP2,2013-05-30 07:51:00,
2013-05-30 03:56:00,55.7,55.4,29.98,WSW,254,0.0,0.0,99,0.00,,,0.01,WUHU216DAVISVP2,2013-05-30 07:56:00,
2013-05-30 04:01:00,55.5,55.2,29.98,WSW,254,0.0,0.0,99,0.00,,,0.01,WUHU216DAVISVP2,2013-05-30 08:01:00,
2013-05-30 04:06:00,55.3,54.7,29.98,WSW,254,0.0,0.0,98,0.00,,,0.01,WUHU216DAVISVP2,2013-05-30 08:06:00,
2013-05-30 04:11:00,55.0,54.4,29.98,WSW,254,0.0,0.0,98,0.00,,,0.01,WUHU216DAVISVP2,2013-05-30 08:11:00,
2013-05-30 04:16:00,54.9,54.6,29.98,WSW,254,0.0,0.0,99,0.00,,,0.01,WUHU216DAVISVP2,2013-05-30 08:16:00,
2013-05-30 04:21:00,54.7,54.1,29.98,WSW,254,0.0,0.0,98,0.00,,,0.01,WUHU216DAVISVP2,2013-05-30 08:21:00,
2013-05-30 04:26:00,54.6,54.0,29.99,WSW,254,0.0,0.0,98,0.00,,,0.01,WUHU216DAVISVP2,2013-05-30 08:26:00,
2013-05-30 04:31:00,54.5,54.2,29.99,WSW,254,0.0,0.0,99,0.00,,,0.01,WUHU216DAVISVP2,2013-05-30 08:31:00,
2013-05-30 04:36:00,54.5,54.2,29.99,WSW,254,0.0,0.0,99,0.00,,,0.01,WUHU216DAVISVP2,2013-05-30 08:36:00,
2013-05-30 04:41:00,54.4,54.1,29.99,WSW,254,0.0,0.0,99,0.00,,,0.01,WUHU216DAVISVP2,2013-05-30 08:41:00,
2013-05-30 04:46:00,54.3,54.0,29.99,WSW,254,0.0,0.0,99,0.00,,,0.01,WUHU216DAVISVP2,2013-05-30 08:46:00,
2013-05-30 04:51:00,54.2,53.9,29.99,WSW,254,0.0,0.0,99,0.00,,,0.01,WUHU216DAVISVP2,2013-05-30 08:51:00,
2013-05-30 04:56:00,54.1,53.8,29.99,WSW,254,0.0,0.0,99,0.00,,,0.01,WUHU216DAVISVP2,2013-05-30 08:56:00,
2013-05-30 05:01:00,54.0,53.7,29.99,WSW,254,0.0,0.0,99,0.00,,,0.01,WUHU216DAVISVP2,2013-05-30 09:01:00,
2013-05-30 05:06:00,54.0,53.7,29.99,WSW,254,0.0,0.0,99,0.00,,,0.01,WUHU216DAVISVP2,2013-05-30 09:06:00,
2013-05-30 05:11:00,53.9,53.6,29.99,WSW,254,0.0,0.0,99,0.00,,,0.01,WUHU216DAVISVP2,2013-05-30 09:11:00,
2013-05-30 05:16:00,53.8,53.5,29.99,WSW,254,0.0,0.0,99,0.00,,,0.01,WUHU216DAVISVP2,2013-05-30 09:16:00,
2013-05-30 05:21:00,53.7,53.4,29.99,WSW,254,0.0,0.0,99,0.00,,,0.01,WUHU216DAVISVP2,2013-05-30 09:21:00,
2013-05-30 05:26:00,53.6,53.3,30.00,WSW,254,0.0,0.0,99,0.00,,,0.01,WUHU216DAVISVP2,2013-05-30 09:26:00,
2013-05-30 05:31:00,53.6,53.3,30.00,WSW,254,0.0,0.0,99,0.00,,,0.01,WUHU216DAVISVP2,2013-05-30 09:31:00,
2013-05-30 05:36:00,53.6,53.3,30.00,WSW,254,0.0,0.0,99,0.00,,,0.01,WUHU216DAVISVP2,2013-05-30 09:36:00,
2013-05-30 05:41:00,53.5,53.2,30.00,WSW,254,0.0,0.0,99,0.00,,,0.01,WUHU216DAVISVP2,2013-05-30 09:41:00,
2013-05-30 05:46:00,53.5,53.2,30.00,WSW,254,0.0,0.0,99,0.00,,,0.01,WUHU216DAVISVP2,2013-05-30 09:46:00,
2013-05-30 05:51:00,53.6,53.3,30.00,WSW,254,0.0,0.0,99,0.00,,,0.01,WUHU216DAVISVP2,2013-05-30 09:51:00,
2013-05-30 05:56:00,53.6,53.3,30.01,WSW,254,0.0,0.0,99,0.00,,,0.01,WUHU216DAVISVP2,2013-05-30 09:56:00,
2013-05-30 06:01:00,53.6,53.3,30.01,WSW,254,0.0,0.0,99,0.00,,,0.01,WUHU216DAVISVP2,2013-05-30 10:01:00,
2013-05-30 06:06:00,53.6,53.3,30.01,WSW,254,0.0,0.0,99,0.00,,,0.01,WUHU216DAVISVP2,2013-05-30 10:06:00,
2013-05-30 06:11:00,53.7,53.4,30.01,WSW,254,0.0,0.0,99,0.00,,,0.01,WUHU216DAVISVP2,2013-05-30 10:11:00,
2013-05-30 06:16:00,53.8,53.5,30.01,WSW,254,0.0,0.0,99,0.00,,,0.01,WUHU216DAVISVP2,2013-05-30 10:16:00,
2013-05-30 06:21:00,53.9,53.6,30.01,WSW,254,0.0,0.0,99,0.00,,,0.01,WUHU216DAVISVP2,2013-05-30 10:21:00,
2013-05-30 06:26:00,54.1,53.8,30.01,WSW,254,0.0,0.0,99,0.00,,,0.01,WUHU216DAVISVP2,2013-05-30 10:26:00,
2013-05-30 06:31:00,54.5,54.2,30.01,WSW,254,0.0,0.0,99,0.00,,,0.01,WUHU216DAVISVP2,2013-05-30 10:31:00,
2013-05-30 06:36:00,54.9,54.6,30.01,WSW,254,0.0,0.0,99,0.00,,,0.01,WUHU216DAVISVP2,2013-05-30 10:36:00,
2013-05-30 06:41:00,55.2,54.9,30.02,WSW,254,0.0,0.0,99,0.00,,,0.01,WUHU216DAVISVP2,2013-05-30 10:41:00,
2013-05-30 06:46:00,55.8,55.8,30.01,WSW,254,0.0,0.0,100,0.00,,,0.01,WUHU216DAVISVP2,2013-05-30 10:46:00,
2013-05-30 06:51:00,56.4,56.4,30.02,WSW,254,0.0,0.0,100,0.00,,,0.01,WUHU216DAVISVP2,2013-05-30 10:51:00,
2013-05-30 06:56:00,56.9,56.9,30.02,WSW,254,0.0,0.0,100,0.00,,,0.01,WUHU216DAVISVP2,2013-05-30 10:56:00,
2013-05-30 07:01:00,57.2,57.2,30.02,WSW,254,0.0,0.0,100,0.00,,,0.01,WUHU216DAVISVP2,2013-05-30 11:01:00,
2013-05-30 07:06:00,57.5,57.5,30.02,WSW,254,0.0,0.0,100,0.00,,,0.01,WUHU216DAVISVP2,2013-05-30 11:06:00,
2013-05-30 07:11:00,58.0,58.0,30.02,WSW,254,0.0,0.0,100,0.00,,,0.01,WUHU216DAVISVP2,2013-05-30 11:11:00,
2013-05-30 07:16:00,58.7,58.7,30.02,WSW,254,0.0,0.0,100,0.00,,,0.01,WUHU216DAVISVP2,2013-05-30 11:16:00,
2013-05-30 07:21:00,59.7,59.7,30.02,WSW,254,0.0,1.0,100,0.00,,,0.01,WUHU216DAVISVP2,2013-05-30 11:21:00,
2013-05-30 07:26:00,60.3,60.3,30.02,WSW,254,0.0,1.0,100,0.00,,,0.01,WUHU216DAVISVP2,2013-05-30 11:26:00,
2013-05-30 07:31:00,61.0,61.0,30.02,WSW,254,0.0,1.0,100,0.00,,,0.01,WUHU216DAVISVP2,2013-05-30 11:31:00,
2013-05-30 07:36:00,61.7,61.7,30.02,WSW,254,0.0,1.0,100,0.00,,,0.01,WUHU216DAVISVP2,2013-05-30 11:36:00,
2013-05-30 07:41:00,62.3,62.3,30.02,WSW,254,0.0,0.0,100,0.00,,,0.01,WUHU216DAVISVP2,2013-05-30 11:41:00,
2013-05-30 07:46:00,62.9,62.9,30.03,WSW,254,0.0,0.0,100,0.00,,,0.01,WUHU216DAVISVP2,2013-05-30 11:46:00,
2013-05-30 07:51:00,63.6,63.6,30.03,WSW,254,0.0,0.0,100,0.00,,,0.01,WUHU216DAVISVP2,2013-05-30 11:51:00,
2013-05-30 07:56:00,64.1,64.1,30.03,WSW,254,0.0,0.0,100,0.00,,,0.01,WUHU216DAVISVP2,2013-05-30 11:56:00,
2013-05-30 08:01:00,64.6,64.6,30.03,WSW,254,0.0,0.0,100,0.00,,,0.01,WUHU216DAVISVP2,2013-05-30 12:01:00,
2013-05-30 08:06:00,65.3,65.3,30.03,WSW,254,1.0,1.0,100,0.00,,,0.01,WUHU216DAVISVP2,2013-05-30 12:06:00,
2013-05-30 08:11:00,65.8,65.8,30.03,WSW,254,1.0,1.0,100,0.00,,,0.01,WUHU216DAVISVP2,2013-05-30 12:11:00,
2013-05-30 08:16:00,66.2,66.2,30.03,NW,315,0.0,3.0,100,0.00,,,0.01,WUHU216DAVISVP2,2013-05-30 12:16:00,
2013-05-30 08:21:00,66.4,66.4,30.03,NW,315,0.0,3.0,100,0.00,,,0.01,WUHU216DAVISVP2,2013-05-30 12:21:00,
2013-05-30 08:26:00,66.8,66.8,30.03,NW,315,0.0,3.0,100,0.00,,,0.01,WUHU216DAVISVP2,2013-05-30 12:26:00,
2013-05-30 08:31:00,67.1,67.1,30.03,NW,316,0.0,3.0,100,0.00,,,0.01,WUHU216DAVISVP2,2013-05-30 12:31:00,
2013-05-30 08:36:00,67.2,67.2,30.03,SW,232,1.0,4.0,100,0.00,,,0.01,WUHU216DAVISVP2,2013-05-30 12:36:00,
2013-05-30 08:41:00,67.5,67.5,30.03,SW,225,0.0,4.0,100,0.00,,,0.01,WUHU216DAVISVP2,2013-05-30 12:41:00,
2013-05-30 08:46:00,68.0,68.0,30.03,SW,225,0.0,4.0,100,0.00,,,0.01,WUHU216DAVISVP2,2013-05-30 12:46:00,
2013-05-30 08:51:00,68.3,68.3,30.03,SW,224,0.0,4.0,100,0.00,,,0.01,WUHU216DAVISVP2,2013-05-30 12:51:00,
2013-05-30 08:56:00,68.5,68.5,30.03,SW,230,1.0,2.0,100,0.00,,,0.01,WUHU216DAVISVP2,2013-05-30 12:56:00,
2013-05-30 09:01:00,68.7,68.7,30.03,SW,230,0.0,2.0,100,0.00,,,0.01,WUHU216DAVISVP2,2013-05-30 13:01:00,
2013-05-30 09:06:00,68.7,68.7,30.04,North,10,1.9,3.0,100,0.00,,,0.01,WUHU216DAVISVP2,2013-05-30 13:06:00,
2013-05-30 09:11:00,69.2,68.9,30.04,NW,323,1.2,4.0,99,0.00,,,0.01,WUHU216DAVISVP2,2013-05-30 13:11:00,
2013-05-30 09:16:00,69.8,68.0,30.03,WSW,243,2.0,4.0,94,0.00,,,0.01,WUHU216DAVISVP2,2013-05-30 13:16:00,
2013-05-30 09:21:00,70.3,67.2,30.03,SW,221,2.2,4.0,90,0.00,,,0.01,WUHU216DAVISVP2,2013-05-30 13:21:00,
2013-05-30 09:26:00,71.0,67.6,30.03,SSW,204,1.8,4.0,89,0.00,,,0.01,WUHU216DAVISVP2,2013-05-30 13:26:00,
2013-05-30 09:31:00,71.7,67.6,30.03,West,277,0.0,5.0,87,0.00,,,0.01,WUHU216DAVISVP2,2013-05-30 13:31:00,
2013-05-30 09:36:00,72.3,67.9,30.02,South,186,3.0,5.0,86,0.00,,,0.01,WUHU216DAVISVP2,2013-05-30 13:36:00,
2013-05-30 09:41:00,72.7,68.3,30.03,South,189,1.0,5.0,86,0.00,,,0.01,WUHU216DAVISVP2,2013-05-30 13:41:00,
2013-05-30 09:46:00,73.1,67.3,30.02,SSW,192,6.0,6.0,82,0.00,,,0.01,WUHU216DAVISVP2,2013-05-30 13:46:00,
2013-05-30 09:51:00,73.6,67.5,30.02,East,83,7.0,7.0,81,0.00,,,0.01,WUHU216DAVISVP2,2013-05-30 13:51:00,
2013-05-30 09:56:00,74.4,66.9,30.02,North,10,2.0,7.0,77,0.00,,,0.01,WUHU216DAVISVP2,2013-05-30 13:56:00,
2013-05-30 10:01:00,74.8,66.5,30.03,South,176,1.8,7.0,75,0.00,,,0.01,WUHU216DAVISVP2,2013-05-30 14:01:00,
2013-05-30 10:06:00,75.2,66.5,30.03,WNW,288,2.0,7.0,74,0.00,,,0.01,WUHU216DAVISVP2,2013-05-30 14:06:00,
2013-05-30 10:11:00,75.6,67.3,30.03,SSW,198,1.2,6.0,75,0.00,,,0.01,WUHU216DAVISVP2,2013-05-30 14:11:00,
2013-05-30 10:16:00,75.9,65.6,30.03,ENE,74,2.1,6.0,70,0.00,,,0.01,WUHU216DAVISVP2,2013-05-30 14:16:00,
2013-05-30 10:21:00,76.2,66.7,30.03,SSE,166,1.1,6.0,72,0.00,,,0.01,WUHU216DAVISVP2,2013-05-30 14:21:00,
2013-05-30 10:26:00,76.4,66.1,30.03,NW,316,1.0,6.0,70,0.00,,,0.01,WUHU216DAVISVP2,2013-05-30 14:26:00,
2013-05-30 10:31:00,76.7,66.4,30.03,North,350,1.2,5.0,70,0.00,,,0.01,WUHU216DAVISVP2,2013-05-30 14:31:00,
2013-05-30 10:36:00,77.0,66.3,30.03,NNE,13,3.1,8.0,69,0.00,,,0.01,WUHU216DAVISVP2,2013-05-30 14:36:00,
2013-05-30 10:41:00,77.3,66.1,30.03,NNE,30,2.0,8.0,68,0.00,,,0.01,WUHU216DAVISVP2,2013-05-30 14:41:00,
2013-05-30 10:46:00,77.5,66.3,30.03,NE,39,1.3,8.0,68,0.00,,,0.01,WUHU216DAVISVP2,2013-05-30 14:46:00,
2013-05-30 10:51:00,77.8,66.6,30.03,NNE,24,1.5,8.0,68,0.00,,,0.01,WUHU216DAVISVP2,2013-05-30 14:51:00,
2013-05-30 10:56:00,78.0,66.0,30.03,North,360,1.0,4.0,66,0.00,,,0.01,WUHU216DAVISVP2,2013-05-30 14:56:00,
2013-05-30 11:01:00,78.2,67.8,30.03,ENE,66,1.6,4.0,70,0.00,,,0.01,WUHU216DAVISVP2,2013-05-30 15:01:00,
2013-05-30 11:06:00,78.7,65.5,30.03,NNE,27,1.8,4.0,64,0.00,,,0.01,WUHU216DAVISVP2,2013-05-30 15:06:00,
2013-05-30 11:11:00,79.0,67.5,30.03,NE,53,1.5,4.0,68,0.00,,,0.01,WUHU216DAVISVP2,2013-05-30 15:11:00,
2013-05-30 11:16:00,79.2,66.4,30.03,NNW,346,1.0,6.0,65,0.00,,,0.01,WUHU216DAVISVP2,2013-05-30 15:16:00,
2013-05-30 11:21:00,79.3,65.6,30.03,West,280,1.8,6.0,63,0.00,,,0.01,WUHU216DAVISVP2,2013-05-30 15:21:00,
2013-05-30 11:26:00,79.5,66.7,30.03,NNE,29,2.0,6.0,65,0.00,,,0.01,WUHU216DAVISVP2,2013-05-30 15:26:00,
2013-05-30 11:31:00,79.6,66.6,30.03,SW,227,2.1,6.0,64,0.00,,,0.01,WUHU216DAVISVP2,2013-05-30 15:31:00,
2013-05-30 11:36:00,79.6,65.7,30.03,NE,35,2.1,6.0,62,0.00,,,0.01,WUHU216DAVISVP2,2013-05-30 15:36:00,
2013-05-30 11:41:00,79.4,66.4,30.03,WSW,254,3.0,6.0,64,0.00,,,0.01,WUHU216DAVISVP2,2013-05-30 15:41:00,
2013-05-30 11:46:00,79.3,65.9,30.03,East,83,1.7,6.0,63,0.00,,,0.01,WUHU216DAVISVP2,2013-05-30 15:46:00,
2013-05-30 11:51:00,79.3,65.9,30.03,SSE,150,1.8,6.0,63,0.00,,,0.01,WUHU216DAVISVP2,2013-05-30 15:51:00,
2013-05-30 11:56:00,79.4,66.4,30.03,West,268,2.3,8.0,64,0.00,,,0.01,WUHU216DAVISVP2,2013-05-30 15:56:00,
2013-05-30 12:01:00,79.8,67.2,30.03,WSW,240,4.0,8.0,65,0.00,,,0.01,WUHU216DAVISVP2,2013-05-30 16:01:00,
2013-05-30 12:06:00,80.1,66.6,30.03,West,277,2.6,9.0,63,0.00,,,0.01,WUHU216DAVISVP2,2013-05-30 16:06:00,
2013-05-30 12:11:00,80.5,66.5,30.03,WNW,288,2.3,9.0,62,0.00,,,0.01,WUHU216DAVISVP2,2013-05-30 16:11:00,
2013-05-30 12:16:00,81.1,66.4,30.02,East,84,5.0,9.0,61,0.00,,,0.01,WUHU216DAVISVP2,2013-05-30 16:16:00,
2013-05-30 12:21:00,81.6,65.9,30.02,ESE,104,1.9,9.0,59,0.00,,,0.01,WUHU216DAVISVP2,2013-05-30 16:21:00,
2013-05-30 12:26:00,82.0,65.8,30.02,SW,229,2.9,9.0,58,0.00,,,0.01,WUHU216DAVISVP2,2013-05-30 16:26:00,
2013-05-30 12:31:00,82.2,64.9,30.02,North,355,3.0,9.0,56,0.00,,,0.01,WUHU216DAVISVP2,2013-05-30 16:31:00,
2013-05-30 12:36:00,82.4,67.9,30.01,South,188,2.0,9.0,61,0.00,,,0.01,WUHU216DAVISVP2,2013-05-30 16:36:00,
2013-05-30 12:41:00,82.8,66.2,30.01,West,263,2.8,9.0,57,0.00,,,0.01,WUHU216DAVISVP2,2013-05-30 16:41:00,
2013-05-30 12:46:00,83.0,66.4,30.01,West,259,1.6,11.0,57,0.00,,,0.01,WUHU216DAVISVP2,2013-05-30 16:46:00,
2013-05-30 12:51:00,83.1,65.5,30.01,SSW,196,1.8,11.0,55,0.00,,,0.01,WUHU216DAVISVP2,2013-05-30 16:51:00,
2013-05-30 12:56:00,82.8,66.0,30.01,ENE,57,2.1,11.0,57,0.00,,,0.01,WUHU216DAVISVP2,2013-05-30 16:56:00,
2013-05-30 13:01:00,82.8,66.0,30.01,WSW,251,1.5,11.0,57,0.00,,,0.01,WUHU216DAVISVP2,2013-05-30 17:01:00,
2013-05-30 13:06:00,82.9,66.6,30.01,NNE,23,1.7,5.0,58,0.00,,,0.01,WUHU216DAVISVP2,2013-05-30 17:06:00,
2013-05-30 13:11:00,83.3,67.2,30.00,West,279,1.0,5.0,58,0.00,,,0.01,WUHU216DAVISVP2,2013-05-30 17:11:00,
2013-05-30 13:16:00,83.2,66.6,30.00,East,92,3.0,7.0,57,0.00,,,0.01,WUHU216DAVISVP2,2013-05-30 17:16:00,
2013-05-30 13:21:00,83.0,65.9,30.00,ESE,115,0.0,7.0,56,0.00,,,0.01,WUHU216DAVISVP2,2013-05-30 17:21:00,
2013-05-30 13:26:00,83.5,65.8,30.00,North,5,6.0,8.0,55,0.00,,,0.01,WUHU216DAVISVP2,2013-05-30 17:26:00,
2013-05-30 13:31:00,84.1,65.3,30.00,NNE,20,1.0,8.0,53,0.00,,,0.01,WUHU216DAVISVP2,2013-05-30 17:31:00,
2013-05-30 13:36:00,84.5,64.5,30.00,WSW,248,2.7,8.0,51,0.00,,,0.01,WUHU216DAVISVP2,2013-05-30 17:36:00,
2013-05-30 13:41:00,84.8,63.5,30.00,WSW,252,3.5,9.0,49,0.00,,,0.01,WUHU216DAVISVP2,2013-05-30 17:41:00,
2013-05-30 13:46:00,85.2,63.9,30.00,North,10,3.1,11.0,49,0.00,,,0.01,WUHU216DAVISVP2,2013-05-30 17:46:00,
2013-05-30 13:51:00,85.7,64.9,30.00,NNW,337,2.4,11.0,50,0.00,,,0.01,WUHU216DAVISVP2,2013-05-30 17:51:00,
2013-05-30 13:56:00,85.6,63.2,30.00,SSW,209,1.4,11.0,47,0.00,,,0.01,WUHU216DAVISVP2,2013-05-30 17:56:00,
2013-05-30 14:01:00,85.3,65.9,30.00,WNW,299,2.4,11.0,52,0.00,,,0.01,WUHU216DAVISVP2,2013-05-30 18:01:00,
2013-05-30 14:06:00,85.1,65.1,29.99,East,85,2.9,8.0,51,0.00,,,0.01,WUHU216DAVISVP2,2013-05-30 18:06:00,
2013-05-30 14:11:00,85.0,64.3,30.00,NNE,32,2.9,8.0,50,0.00,,,0.01,WUHU216DAVISVP2,2013-05-30 18:11:00,
2013-05-30 14:16:00,84.8,63.6,30.00,North,354,2.5,10.0,49,0.00,,,0.01,WUHU216DAVISVP2,2013-05-30 18:16:00,
2013-05-30 14:21:00,85.1,65.7,29.99,North,355,1.2,10.0,52,0.00,,,0.01,WUHU216DAVISVP2,2013-05-30 18:21:00,
2013-05-30 14:26:00,84.9,64.3,29.99,NE,42,2.7,10.0,50,0.00,,,0.01,WUHU216DAVISVP2,2013-05-30 18:26:00,
2013-05-30 14:31:00,84.4,63.3,29.99,NE,41,2.7,10.0,49,0.00,,,0.01,WUHU216DAVISVP2,2013-05-30 18:31:00,
2013-05-30 14:36:00,84.6,64.6,29.99,East,95,1.9,9.0,51,0.00,,,0.01,WUHU216DAVISVP2,2013-05-30 18:36:00,
2013-05-30 14:41:00,85.1,63.3,29.98,WSW,246,5.0,9.0,48,0.00,,,0.01,WUHU216DAVISVP2,2013-05-30 18:41:00,
2013-05-30 14:46:00,85.6,63.2,29.99,SW,220,4.0,9.0,47,0.00,,,0.01,WUHU216DAVISVP2,2013-05-30 18:46:00,
2013-05-30 14:51:00,85.9,64.0,29.99,West,265,7.0,9.0,48,0.00,,,0.01,WUHU216DAVISVP2,2013-05-30 18:51:00,
2013-05-30 14:56:00,86.3,63.8,29.99,ENE,59,5.0,8.0,47,0.00,,,0.01,WUHU216DAVISVP2,2013-05-30 18:56:00,
2013-05-30 15:01:00,86.3,63.8,29.99,North,359,1.4,8.0,47,0.00,,,0.01,WUHU216DAVISVP2,2013-05-30 19:01:00,
2013-05-30 15:06:00,86.5,62.7,29.99,East,90,6.0,8.0,45,0.00,,,0.01,WUHU216DAVISVP2,2013-05-30 19:06:00,
2013-05-30 15:11:00,86.5,62.7,29.99,NE,55,1.4,11.0,45,0.00,,,0.01,WUHU216DAVISVP2,2013-05-30 19:11:00,
2013-05-30 15:16:00,86.6,64.1,29.98,NNE,15,1.4,11.0,47,0.00,,,0.01,WUHU216DAVISVP2,2013-05-30 19:16:00,
2013-05-30 15:21:00,86.5,64.0,29.98,South,173,1.8,10.0,47,0.00,,,0.01,WUHU216DAVISVP2,2013-05-30 19:21:00,
2013-05-30 15:26:00,86.4,63.3,29.98,ENE,68,2.0,10.0,46,0.00,,,0.01,WUHU216DAVISVP2,2013-05-30 19:26:00,
2013-05-30 15:31:00,86.4,63.3,29.98,NW,323,2.0,9.0,46,0.00,,,0.01,WUHU216DAVISVP2,2013-05-30 19:31:00,
2013-05-30 15:36:00,86.5,62.0,29.98,West,260,2.7,9.0,44,0.00,,,0.01,WUHU216DAVISVP2,2013-05-30 19:36:00,
2013-05-30 15:41:00,86.5,63.3,29.98,WNW,284,2.7,9.0,46,0.00,,,0.01,WUHU216DAVISVP2,2013-05-30 19:41:00,
2013-05-30 15:46:00,86.3,62.5,29.98,South,170,7.0,7.0,45,0.00,,,0.01,WUHU216DAVISVP2,2013-05-30 19:46:00,
2013-05-30 15:51:00,86.1,61.7,29.97,NNE,33,3.2,13.0,44,0.00,,,0.01,WUHU216DAVISVP2,2013-05-30 19:51:00,
2013-05-30 15:56:00,86.6,62.8,29.97,WNW,287,1.3,13.0,45,0.00,,,0.01,WUHU216DAVISVP2,2013-05-30 19:56:00,
2013-05-30 16:01:00,86.8,61.6,29.97,WNW,286,3.1,13.0,43,0.00,,,0.01,WUHU216DAVISVP2,2013-05-30 20:01:00,
2013-05-30 16:06:00,86.8,63.0,29.97,ESE,110,1.5,7.0,45,0.00,,,0.01,WUHU216DAVISVP2,2013-05-30 20:06:00,
2013-05-30 16:11:00,86.8,63.0,29.97,WNW,292,3.1,7.0,45,0.00,,,0.01,WUHU216DAVISVP2,2013-05-30 20:11:00,
2013-05-30 16:16:00,86.8,63.0,29.97,North,357,1.3,7.0,45,0.00,,,0.01,WUHU216DAVISVP2,2013-05-30 20:16:00,
2013-05-30 16:21:00,86.9,64.3,29.97,NNW,331,2.0,7.0,47,0.00,,,0.01,WUHU216DAVISVP2,2013-05-30 20:21:00,
2013-05-30 16:26:00,87.0,62.5,29.97,SSW,198,7.0,7.0,44,0.00,,,0.01,WUHU216DAVISVP2,2013-05-30 20:26:00,
2013-05-30 16:31:00,87.0,62.5,29.97,WSW,248,1.7,7.0,44,0.00,,,0.01,WUHU216DAVISVP2,2013-05-30 20:31:00,
2013-05-30 16:36:00,87.0,63.2,29.97,ENE,65,1.0,7.0,45,0.00,,,0.01,WUHU216DAVISVP2,2013-05-30 20:36:00,
2013-05-30 16:41:00,87.0,63.8,29.97,NNE,33,1.3,7.0,46,0.00,,,0.01,WUHU216DAVISVP2,2013-05-30 20:41:00,
2013-05-30 16:46:00,87.2,62.0,29.97,WSW,247,2.6,7.0,43,0.00,,,0.01,WUHU216DAVISVP2,2013-05-30 20:46:00,
2013-05-30 16:51:00,87.2,62.7,29.96,NNW,340,2.8,7.0,44,0.00,,,0.01,WUHU216DAVISVP2,2013-05-30 20:51:00,
2013-05-30 16:56:00,86.9,63.7,29.97,NE,44,1.8,8.0,46,0.00,,,0.01,WUHU216DAVISVP2,2013-05-30 20:56:00,
2013-05-30 17:01:00,86.8,62.3,29.97,NW,309,2.6,8.0,44,0.00,,,0.01,WUHU216DAVISVP2,2013-05-30 21:01:00,
2013-05-30 17:06:00,86.7,62.9,29.96,WSW,257,1.8,8.0,45,0.00,,,0.01,WUHU216DAVISVP2,2013-05-30 21:06:00,
2013-05-30 17:11:00,86.8,62.9,29.96,NE,54,1.7,8.0,45,0.00,,,0.01,WUHU216DAVISVP2,2013-05-30 21:11:00,
2013-05-30 17:16:00,86.9,64.2,29.96,NE,45,2.3,7.0,47,0.00,,,0.01,WUHU216DAVISVP2,2013-05-30 21:16:00,
2013-05-30 17:21:00,87.0,64.3,29.96,NNE,17,4.0,7.0,47,0.00,,,0.01,WUHU216DAVISVP2,2013-05-30 21:21:00,
2013-05-30 17:26:00,87.0,63.7,29.96,SW,226,4.0,8.0,46,0.00,,,0.01,WUHU216DAVISVP2,2013-05-30 21:26:00,
2013-05-30 17:31:00,86.9,63.7,29.96,NNE,33,1.9,8.0,46,0.00,,,0.01,WUHU216DAVISVP2,2013-05-30 21:31:00,
2013-05-30 17:36:00,86.8,63.0,29.96,West,269,4.1,9.0,45,0.00,,,0.01,WUHU216DAVISVP2,2013-05-30 21:36:00,
2013-05-30 17:41:00,86.5,63.3,29.96,NE,36,2.4,9.0,46,0.00,,,0.01,WUHU216DAVISVP2,2013-05-30 21:41:00,
2013-05-30 17:46:00,86.5,63.3,29.96,SE,124,1.0,9.0,46,0.00,,,0.01,WUHU216DAVISVP2,2013-05-30 21:46:00,
2013-05-30 17:51:00,86.6,64.7,29.96,NE,38,1.0,9.0,48,0.00,,,0.01,WUHU216DAVISVP2,2013-05-30 21:51:00,
2013-05-30 17:56:00,86.5,64.0,29.96,East,100,1.1,5.0,47,0.00,,,0.01,WUHU216DAVISVP2,2013-05-30 21:56:00,
2013-05-30 18:01:00,86.5,64.6,29.96,East,94,1.0,5.0,48,0.00,,,0.01,WUHU216DAVISVP2,2013-05-30 22:01:00,
2013-05-30 18:06:00,86.6,64.7,29.96,South,176,1.0,4.0,48,0.00,,,0.01,WUHU216DAVISVP2,2013-05-30 22:06:00,
2013-05-30 18:11:00,86.8,67.3,29.96,South,176,0.0,3.0,52,0.00,,,0.01,WUHU216DAVISVP2,2013-05-30 22:11:00,
2013-05-30 18:16:00,86.8,65.9,29.96,South,187,1.6,3.0,50,0.00,,,0.01,WUHU216DAVISVP2,2013-05-30 22:16:00,
2013-05-30 18:21:00,86.7,67.0,29.96,SSW,195,1.0,3.0,52,0.00,,,0.01,WUHU216DAVISVP2,2013-05-30 22:21:00,
2013-05-30 18:26:00,86.8,67.1,29.96,SW,217,2.0,4.0,52,0.00,,,0.01,WUHU216DAVISVP2,2013-05-30 22:26:00,
2013-05-30 18:31:00,86.8,65.3,29.96,SW,217,1.0,4.0,49,0.00,,,0.01,WUHU216DAVISVP2,2013-05-30 22:31:00,
2013-05-30 18:36:00,87.0,66.1,29.96,SW,217,1.0,4.0,50,0.00,,,0.01,WUHU216DAVISVP2,2013-05-30 22:36:00,
2013-05-30 18:41:00,87.0,66.9,29.96,SSW,212,0.0,4.0,51,0.00,,,0.01,WUHU216DAVISVP2,2013-05-30 22:41:00,
2013-05-30 18:46:00,86.6,65.3,29.96,SW,233,1.2,6.0,49,0.00,,,0.01,WUHU216DAVISVP2,2013-05-30 22:46:00,
2013-05-30 18:51:00,86.2,66.1,29.96,SW,234,1.0,6.0,51,0.00,,,0.01,WUHU216DAVISVP2,2013-05-30 22:51:00,
2013-05-30 18:56:00,85.9,67.5,29.96,West,265,1.5,6.0,54,0.00,,,0.01,WUHU216DAVISVP2,2013-05-30 22:56:00,
2013-05-30 19:01:00,85.6,66.7,29.96,SW,219,1.0,6.0,53,0.00,,,0.01,WUHU216DAVISVP2,2013-05-30 23:01:00,
2013-05-30 19:06:00,85.1,66.8,29.96,SW,225,1.2,4.0,54,0.00,,,0.01,WUHU216DAVISVP2,2013-05-30 23:06:00,
2013-05-30 19:11:00,84.6,67.9,29.96,SW,225,0.0,4.0,57,0.00,,,0.01,WUHU216DAVISVP2,2013-05-30 23:11:00,
2013-05-30 19:16:00,84.0,69.4,29.96,SW,225,0.0,4.0,61,0.00,,,0.01,WUHU216DAVISVP2,2013-05-30 23:16:00,
2013-05-30 19:21:00,83.2,69.1,29.97,SW,225,0.0,3.0,62,0.00,,,0.01,WUHU216DAVISVP2,2013-05-30 23:21:00,
2013-05-30 19:26:00,82.4,69.3,29.97,SW,225,0.0,0.0,64,0.00,,,0.01,WUHU216DAVISVP2,2013-05-30 23:26:00,
2013-05-30 19:31:00,81.7,68.6,29.97,SW,225,0.0,0.0,64,0.00,,,0.01,WUHU216DAVISVP2,2013-05-30 23:31:00,
2013-05-30 19:36:00,80.9,68.7,29.97,SW,225,0.0,0.0,66,0.00,,,0.01,WUHU216DAVISVP2,2013-05-30 23:36:00,
2013-05-30 19:41:00,80.4,68.7,29.97,SW,225,0.0,0.0,67,0.00,,,0.01,WUHU216DAVISVP2,2013-05-30 23:41:00,
2013-05-30 19:46:00,80.0,68.7,29.97,SW,225,0.0,0.0,68,0.00,,,0.01,WUHU216DAVISVP2,2013-05-30 23:46:00,
2013-05-30 19:51:00,79.1,68.3,29.97,SW,225,0.0,0.0,69,0.00,,,0.01,WUHU216DAVISVP2,2013-05-30 23:51:00,
2013-05-30 19:56:00,78.2,68.2,29.97,SW,225,0.0,0.0,71,0.00,,,0.01,WUHU216DAVISVP2,2013-05-30 23:56:00,
2013-05-30 20:01:00,77.4,68.6,29.97,SW,225,0.0,0.0,74,0.00,,,0.01,WUHU216DAVISVP2,2013-05-31 00:01:00,
2013-05-30 20:06:00,76.6,68.2,29.97,SW,225,0.0,0.0,75,0.00,,,0.01,WUHU216DAVISVP2,2013-05-31 00:06:00,
2013-05-30 20:11:00,76.1,68.9,29.97,SW,225,0.0,0.0,78,0.00,,,0.01,WUHU216DAVISVP2,2013-05-31 00:11:00,
2013-05-30 20:16:00,75.5,68.6,29.97,SW,225,0.0,0.0,79,0.00,,,0.01,WUHU216DAVISVP2,2013-05-31 00:16:00,
2013-05-30 20:21:00,75.0,68.4,29.97,SW,225,0.0,0.0,80,0.00,,,0.01,WUHU216DAVISVP2,2013-05-31 00:21:00,
2013-05-30 20:26:00,74.7,68.5,29.98,SW,225,0.0,0.0,81,0.00,,,0.01,WUHU216DAVISVP2,2013-05-31 00:26:00,
2013-05-30 20:31:00,74.4,68.5,29.98,SW,225,0.0,0.0,82,0.00,,,0.01,WUHU216DAVISVP2,2013-05-31 00:31:00,
2013-05-30 20:36:00,74.0,68.2,29.98,SW,225,0.0,0.0,82,0.00,,,0.01,WUHU216DAVISVP2,2013-05-31 00:36:00,
2013-05-30 20:41:00,73.7,68.3,29.98,SW,225,0.0,0.0,83,0.00,,,0.01,WUHU216DAVISVP2,2013-05-31 00:41:00,
2013-05-30 20:46:00,73.2,68.1,29.98,SW,225,0.0,0.0,84,0.00,,,0.01,WUHU216DAVISVP2,2013-05-31 00:46:00,
2013-05-30 20:51:00,72.6,68.2,29.98,SW,225,0.0,0.0,86,0.00,,,0.01,WUHU216DAVISVP2,2013-05-31 00:51:00,
2013-05-30 20:56:00,72.0,67.3,29.98,SW,225,0.0,0.0,85,0.00,,,0.01,WUHU216DAVISVP2,2013-05-31 00:56:00,
2013-05-30 21:01:00,71.7,67.3,29.98,SW,225,0.0,0.0,86,0.00,,,0.01,WUHU216DAVISVP2,2013-05-31 01:01:00,
2013-05-30 21:06:00,71.4,67.3,29.99,SW,225,0.0,0.0,87,0.00,,,0.01,WUHU216DAVISVP2,2013-05-31 01:06:00,
2013-05-30 21:11:00,71.1,67.0,29.99,SW,225,0.0,0.0,87,0.00,,,0.01,WUHU216DAVISVP2,2013-05-31 01:11:00,
2013-05-30 21:16:00,70.8,67.1,29.99,SW,225,0.0,0.0,88,0.00,,,0.01,WUHU216DAVISVP2,2013-05-31 01:16:00,
2013-05-30 21:21:00,70.5,67.1,29.99,SW,225,0.0,0.0,89,0.00,,,0.01,WUHU216DAVISVP2,2013-05-31 01:21:00,
2013-05-30 21:26:00,70.1,66.7,29.99,SW,225,0.0,0.0,89,0.00,,,0.01,WUHU216DAVISVP2,2013-05-31 01:26:00,
2013-05-30 21:31:00,69.8,66.7,29.99,SW,225,0.0,0.0,90,0.00,,,0.01,WUHU216DAVISVP2,2013-05-31 01:31:00,
2013-05-30 21:36:00,69.6,66.8,29.99,SW,225,0.0,0.0,91,0.00,,,0.01,WUHU216DAVISVP2,2013-05-31 01:36:00,
2013-05-30 21:41:00,69.3,66.6,29.99,SW,225,0.0,0.0,91,0.00,,,0.01,WUHU216DAVISVP2,2013-05-31 01:41:00,
2013-05-30 21:46:00,69.0,66.6,29.99,SW,225,0.0,0.0,92,0.00,,,0.01,WUHU216DAVISVP2,2013-05-31 01:46:00,
2013-05-30 21:51:00,68.8,66.4,29.99,SW,225,0.0,0.0,92,0.00,,,0.01,WUHU216DAVISVP2,2013-05-31 01:51:00,
2013-05-30 21:56:00,68.5,66.4,29.99,SW,225,0.0,0.0,93,0.00,,,0.01,WUHU216DAVISVP2,2013-05-31 01:56:00,
2013-05-30 22:01:00,68.4,66.3,29.99,SW,225,0.0,0.0,93,0.00,,,0.01,WUHU216DAVISVP2,2013-05-31 02:01:00,
2013-05-30 22:06:00,68.2,66.1,29.99,SW,225,0.0,0.0,93,0.00,,,0.01,WUHU216DAVISVP2,2013-05-31 02:06:00,
2013-05-30 22:11:00,68.0,65.9,29.99,SW,225,0.0,0.0,93,0.00,,,0.01,WUHU216DAVISVP2,2013-05-31 02:11:00,
2013-05-30 22:16:00,67.8,65.7,29.99,SW,225,0.0,0.0,93,0.00,,,0.01,WUHU216DAVISVP2,2013-05-31 02:16:00,
2013-05-30 22:21:00,67.6,65.5,29.99,SW,225,0.0,0.0,93,0.00,,,0.01,WUHU216DAVISVP2,2013-05-31 02:21:00,
2013-05-30 22:26:00,67.4,65.6,30.00,SW,225,0.0,0.0,94,0.00,,,0.01,WUHU216DAVISVP2,2013-05-31 02:26:00,
2013-05-30 22:31:00,67.2,65.4,30.00,SW,225,0.0,0.0,94,0.00,,,0.01,WUHU216DAVISVP2,2013-05-31 02:31:00,
2013-05-30 22:36:00,67.1,65.6,30.00,SW,225,0.0,0.0,95,0.00,,,0.01,WUHU216DAVISVP2,2013-05-31 02:36:00,
2013-05-30 22:41:00,67.0,65.5,30.00,SW,225,0.0,0.0,95,0.00,,,0.01,WUHU216DAVISVP2,2013-05-31 02:41:00,
2013-05-30 22:46:00,67.0,65.5,30.00,SW,225,0.0,0.0,95,0.00,,,0.01,WUHU216DAVISVP2,2013-05-31 02:46:00,
2013-05-30 22:51:00,67.0,65.5,30.00,SW,225,0.0,0.0,95,0.00,,,0.01,WUHU216DAVISVP2,2013-05-31 02:51:00,
2013-05-30 22:56:00,66.9,65.4,30.00,SW,225,0.0,0.0,95,0.00,,,0.01,WUHU216DAVISVP2,2013-05-31 02:56:00,
2013-05-30 23:01:00,66.7,65.2,30.00,SW,225,0.0,0.0,95,0.00,,,0.01,WUHU216DAVISVP2,2013-05-31 03:01:00,
2013-05-30 23:06:00,66.6,65.1,30.00,SW,225,0.0,0.0,95,0.00,,,0.01,WUHU216DAVISVP2,2013-05-31 03:06:00,
2013-05-30 23:11:00,66.4,64.9,30.00,SW,225,0.0,0.0,95,0.00,,,0.01,WUHU216DAVISVP2,2013-05-31 03:11:00,
2013-05-30 23:16:00,66.2,64.7,30.00,SW,225,0.0,0.0,95,0.00,,,0.01,WUHU216DAVISVP2,2013-05-31 03:16:00,
2013-05-30 23:21:00,66.0,64.5,30.00,SW,225,0.0,0.0,95,0.00,,,0.01,WUHU216DAVISVP2,2013-05-31 03:21:00,
2013-05-30 23:26:00,65.9,64.4,29.99,SW,225,0.0,0.0,95,0.00,,,0.01,WUHU216DAVISVP2,2013-05-31 03:26:00,
2013-05-30 23:31:00,65.8,64.3,30.00,SW,225,0.0,0.0,95,0.00,,,0.01,WUHU216DAVISVP2,2013-05-31 03:31:00,
2013-05-30 23:36:00,65.8,64.6,30.00,SW,225,0.0,0.0,96,0.00,,,0.01,WUHU216DAVISVP2,2013-05-31 03:36:00,
2013-05-30 23:41:00,65.7,64.5,30.00,SW,225,0.0,0.0,96,0.00,,,0.01,WUHU216DAVISVP2,2013-05-31 03:41:00,
2013-05-30 23:46:00,65.5,64.3,30.00,SW,225,0.0,0.0,96,0.00,,,0.01,WUHU216DAVISVP2,2013-05-31 03:46:00,
2013-05-30 23:51:00,65.4,64.2,30.00,SW,225,0.0,0.0,96,0.00,,,0.01,WUHU216DAVISVP2,2013-05-31 03:51:00,
2013-05-30 23:56:00,65.2,63.7,30.00,SW,225,0.0,0.0,95,0.00,,,0.01,WUHU216DAVISVP2,2013-05-31 03:56:00,